Location: Vihti�l�
(61.3833°N, 23.0667°E)
Time: 05:12:44
(UTC+00:00)

Cosmos 1184 Rocket - Pass Details

Date: 29 November 2020
Orbit: 404 x 418 km, 81.2° (Epoch: 22 January)

Event Time Altitude Azimuth Distance (km) Brightness Sun altitude
Exits shadow 04:23:40 26° 352° (N) 878 4.1 -17.9°
Drops below altitude 10° 04:25:23 10° 9° (N) 1,517 5.5 -17.7°
Sets 04:27:29 0° 16° (NNE) 2,384 6.6 -17.5°
